Regional Weather Roundup
Issued by NWS

Home | Current Version | Previous Version | Text Only | Print | Product List | Glossary On
Versions: 1 2 3 4 5 6 7 8 9 10 11 12 13 14 15 16 17 18 19 20 21 22 23 24 25 26 27 28 29 30 31 32 33 34 35 36 37 38 39 40 41 42 43 44 45 46 47 48 49 50
000
ASCA44 KEWX 170220
RWRMX

LATIN AMERICA AND CARIBBEAN REGIONAL WEATHER ROUNDUP
NATIONAL WEATHER SERVICE AUSTIN/SAN ANTONIO TX
900 PM CDT WED AUG 16 2017

NOTE: "FAIR" INDICATED FEW OR NO CLOUDS BELOW 12,000 FEET WITH NO
SIGNIFICANT WEATHER AND/OR OBSTRUCTIONS TO VISIBILITY.

BAJA CALIFORNIA

CITY           SKY/WX    TMP DP  RH WIND       PRES   REMARKS
LORETO           N/A    N/A N/A N/A MISG        N/A
LA PAZ         PTCLDY    91  63  38 N7        29.82R HX  92
MEXICALI       CLEAR     99  32   9 SE6       29.73F HX  93
S.J. DEL CABO  PTCLDY    90  63  40 NE13      29.84R HX  90
TIJUANA        CLEAR     68  59  73 W10       29.96R

NORTHWESTERN MEXICO

CITY           SKY/WX    TMP DP  RH WIND       PRES   REMARKS
CULIACAN       MOCLDY    81  77  89 N6        29.82R
DURANGO        MOCLDY    75  54  46 NE7       30.19R
GUAYMAS        PTCLDY    91  81  70 CALM      29.74R HX 110
HERMOSILLO     PTCLDY    97  70  41 SW10      29.82R HX 103
CD. JUAREZ     PTCLDY    88  43  20 NW7       30.02R
LOS MOCHIS     MOCLDY    90  72  55 W8        29.82R HX  96
OBREGON        PTCLDY    93  70  46 W8        29.75R HX  99

NORTHEASTERN MEXICO

CITY           SKY/WX    TMP DP  RH WIND       PRES   REMARKS
CHIHUAHUA      MOCLDY    81  55  41 N5        30.08R
MATAMOROS        N/A    N/A N/A N/A MISG        N/A
MONCLOVA         N/A    N/A N/A N/A MISG        N/A
MONTERREY      PTCLDY    91  59  33 SE6       29.85R HX  90
NUEVO LAREDO     N/A    N/A N/A N/A MISG        N/A
PIEDRAS NEGRAS   N/A    N/A N/A N/A MISG        N/A
REYNOSA          N/A    N/A N/A N/A MISG        N/A
SALTILLO         N/A    N/A N/A N/A MISG        N/A
TORREON        PTCLDY    86  57  37 N3        30.02R
CD. VICTORIA   PTCLDY    86  68  54 S14       29.93R

WESTERN MEXICO

CITY           SKY/WX    TMP DP  RH WIND       PRES   REMARKS
AGUASCALIENTES MOCLDY    68  57  68 CALM      30.20R
COLIMA         MOCLDY    72  72 100 W7        30.03R FOG
DEL BAJIO      CLOUDY    64  59  82 N6        30.28R
GUADALAJARA    MOCLDY    70  61  73 SE5       30.15R
MANZANILLO     RAIN      81  81 100 NE9       29.89R HX  91
MAZATLAN       MOCLDY    84  79  84 NW3       29.85R HX  96
P. VALLARTA    CLOUDY    81  79  94 W6        29.86R
URUAPAN          N/A    N/A N/A N/A MISG        N/A
ZACATECAS      MOCLDY    70  50  49 NW6       30.23R

CENTRAL MEXICO

CITY           SKY/WX    TMP DP  RH WIND       PRES   REMARKS
CUERNAVACA       N/A    N/A N/A N/A MISG        N/A
MEXICO CITY    CLOUDY    70  46  43 S7        30.34R
MORELIA        CLOUDY    64  59  82 W3        30.24R
POZA RICA        N/A    N/A N/A N/A MISG        N/A
PUEBLA         LGT RAIN  57  55  94 SE8       30.39R
QUERETARO      LGT RAIN  61  59  94 SW17      30.34
S. LUIS POTOSI PTCLDY    70  57  64 E14       30.21R
TAMPICO        MOCLDY    82  77  83 SE17      29.92R HX  91
TOLUCA         MOCLDY    59  52  77 S10       30.41R

SOUTHERN MEXICO

CITY           SKY/WX    TMP DP  RH WIND       PRES   REMARKS
ACAPULCO       MOCLDY    82  73  74 CALM      29.92R
B. DE HUATULCO   N/A    N/A N/A N/A MISG        N/A
OAXACA         CLOUDY    70  57  64 CALM      30.20R
P. ESCONDIDO     N/A    N/A N/A N/A MISG        N/A
VERACRUZ       MOCLDY    82  77  83 E5        29.92R HX  91
ZIHUATANEJO    MOCLDY    84  73  70 CALM      29.92R HX  91

YUCATAN PENINSULA

CITY           SKY/WX    TMP DP  RH WIND       PRES   REMARKS
CAMPECHE       MOCLDY    82  77  83 CALM      29.93R HX  91
CANCUN         PTCLDY    82  79  89 NE3       30.02R HX  93
CHETUMAL       MOCLDY    84  77  79 E12       29.98  HX  94
CD. DEL CARMEN PTCLDY   N/A N/A N/A E16       29.93R
COZUMEL        PTCLDY    82  77  83 E6        29.99R HX  91
MERIDA         MOCLDY    79  75  89 NE8       29.98R
MINATITLAN       N/A    N/A N/A N/A MISG        N/A
TAPACHULA      MOCLDY    82  77  83 CALM      29.89R HX  91
TUX. GUTIERREZ CLOUDY    79  72  78 CALM      29.96R
VILLAHERMOSA   PTCLDY    84  73  70 E13       29.90R HX  91

CENTRAL AMERICA

CITY           SKY/WX    TMP DP  RH WIND       PRES   REMARKS
BELIZE CITY    PTCLDY    84  77  79 E12       29.95S HX  94
MANAGUA        PTCLDY    81  75  83 SE5       29.86R

CARIBBEAN

CITY           SKY/WX    TMP DP  RH WIND       PRES   REMARKS
ARUBA          PTCLDY    84  77  79 E14       29.86S HX  94
CURACAO        PTCLDY    82  77  83 E10       29.89S HX  91
KINGSTON       PTCLDY    86  79  79 NW9       29.94S HX  99
NASSAU         PTCLDY    86  79  79 NE5       30.08F HX  99
SAN JUAN       MOCLDY    84  75  74 E17       29.96S HX  92
SANTO DOMINGO  PTCLDY    81  77  89 NE10      29.97R THUNDER
ST. CROIX      PTCLDY    81  79  94 E14G20    29.95
ST. MAARTEN    TSTM      82  81  94 E14       29.97  HX  95
ST. THOMAS     PTCLDY    81  75  83 E16G22    29.96

$$




USA.gov is the U.S. government's official web portal to all federal, state and local government web resources and services.